Theta_e
313 313 314 314 314 315 315 316 317 318 319 320 321 322 322 324 324 323 327 330 327 329 338 342 343 344 345 348 349 349 350 350 349 351 351 350 349 345 349 352 351 351 351 352 352 351 351 352 354 356 357 358 360 360 361 361 362 363 365 364 363 363 363 360 356 353 352 351 350 351 352 352 351 352 354 355 356 356 356 356 356 355 355 356 355 353 352
311 311 312 313 313 313 313 314 316 317 317 318 319 321 322 323 323 324 326 327 328 333 340 341 343 343 344 347 348 348 350 349 347 348 348 349 349 350 353 355 356 356 354 353 353 352 351 351 354 357 357 360 361 361 362 362 362 363 364 364 363 363 363 359 355 354 354 353 352 351 352 352 351 351 353 355 355 356 356 356 356 356 355 355 356 354 353
312 312 312 312 313 313 313 313 315 315 316 316 317 318 321 322 322 324 326 326 328 337 342 339 341 342 342 346 348 348 349 348 346 346 346 346 347 348 349 350 352 356 358 355 354 357 357 356 356 356 358 361 361 361 361 362 363 362 363 363 362 362 362 360 357 355 355 354 353 352 351 351 351 351 352 354 354 355 356 356 355 356 355 355 356 356 355
312 312 312 312 313 313 312 313 314 314 315 316 317 319 320 321 322 324 324 323 329 339 342 339 341 342 342 344 347 348 347 346 345 344 344 345 345 346 348 348 348 351 355 357 357 357 358 359 359 358 359 360 360 361 361 361 362 362 362 363 362 362 362 361 359 356 355 355 354 353 351 350 350 351 351 353 355 355 355 355 355 355 355 354 355 356 357
312 312 312 312 313 313 313 313 313 315 315 316 316 317 319 321 323 323 323 325 331 337 338 338 339 340 341 344 345 344 343 343 342 341 342 343 343 345 347 347 346 344 345 352 358 359 359 359 357 356 357 358 358 359 360 360 361 361 361 362 362 361 362 362 360 358 356 355 354 352 350 349 350 350 351 352 355 355 355 355 355 355 355 355 354 355 356
313 312 312 313 314 314 314 314 315 317 317 318 319 319 319 321 322 323 324 326 329 333 336 336 336 337 339 342 342 340 339 339 339 339 340 340 341 343 343 344 346 344 340 344 352 357 360 359 355 354 354 354 356 359 357 358 361 360 361 361 362 361 362 362 361 360 357 356 354 352 350 350 351 351 351 351 354 355 355 355 355 355 354 354 354 354 355
313 312 313 314 314 314 314 315 320 322 321 322 324 324 322 322 323 324 326 327 326 330 334 335 335 335 337 338 338 336 335 336 336 337 337 337 338 339 340 341 342 343 343 342 345 352 357 359 357 355 354 352 354 358 357 357 359 360 360 361 361 361 361 361 362 360 358 357 355 354 352 352 352 352 351 350 352 355 356 355 356 356 356 355 355 354 353
313 313 314 315 315 314 313 317 322 323 324 325 325 325 323 323 325 327 327 328 329 331 332 333 333 334 335 337 335 332 331 332 332 334 334 335 335 336 337 338 340 342 344 345 347 350 356 358 358 357 355 353 352 354 356 357 358 359 360 361 361 361 361 362 362 361 360 358 357 356 355 354 353 352 352 351 351 353 356 356 356 356 357 357 357 356 354
314 312 312 314 314 313 315 320 322 322 322 324 325 326 326 324 324 325 325 326 327 329 329 330 331 331 333 336 333 329 328 329 329 331 331 331 332 334 335 337 338 341 343 344 346 348 353 357 359 359 357 353 349 351 355 356 357 358 359 360 361 361 361 361 362 362 362 360 359 358 357 355 354 353 353 352 352 352 355 357 359 359 359 359 360 359 357
312 312 313 313 313 314 318 320 321 321 322 322 322 325 326 322 321 323 324 323 324 325 325 327 328 330 333 335 333 328 326 327 327 329 329 329 330 331 333 334 336 339 343 344 345 346 348 352 356 359 358 354 349 350 353 355 355 356 357 359 360 361 361 361 362 363 362 362 360 360 359 358 356 355 354 353 353 353 354 356 360 361 361 360 360 360 359
313 312 313 313 313 316 319 320 319 319 321 322 322 325 326 321 319 321 321 321 322 323 323 324 327 332 334 334 330 326 325 325 326 327 327 328 328 329 331 333 335 339 343 345 346 348 349 351 355 359 360 357 351 350 352 354 355 355 357 359 361 361 361 361 362 363 363 363 362 361 360 359 358 358 357 355 354 353 353 356 360 361 361 362 361 361 360
313 313 313 312 314 318 318 318 318 319 320 320 323 327 325 319 318 320 320 321 321 321 321 322 325 328 329 328 326 325 324 324 324 325 325 326 327 328 330 334 339 342 344 345 347 349 351 353 357 360 361 361 357 353 353 354 355 355 357 359 361 361 361 362 363 364 365 365 363 362 362 361 361 361 360 359 358 356 355 356 358 359 361 362 363 363 362
313 313 313 312 315 317 316 316 318 319 318 319 321 324 321 317 317 319 319 319 320 320 320 321 322 323 323 323 323 324 324 323 323 323 323 325 326 327 328 334 340 342 344 346 347 349 351 354 359 361 362 361 359 355 354 354 355 356 358 360 361 362 362 363 364 364 366 365 365 365 364 362 363 363 363 361 360 358 357 357 356 357 358 360 363 363 362
313 312 313 313 315 315 315 315 317 317 318 319 319 318 316 315 317 317 317 318 319 319 319 319 319 320 320 320 322 322 322 322 322 322 322 324 327 329 332 337 339 340 343 345 347 349 350 354 359 360 361 360 357 354 355 355 356 357 359 360 361 362 364 363 364 366 366 366 366 366 365 365 364 363 363 363 362 360 359 358 356 355 356 358 360 362 362
313 312 312 314 315 315 314 315 316 317 317 317 316 314 314 315 316 316 315 316 317 317 317 317 318 318 318 320 321 321 321 321 321 320 321 322 325 328 332 336 338 339 341 344 347 349 350 354 359 361 362 360 355 353 355 357 356 357 359 361 361 361 364 364 366 368 368 367 367 366 366 366 364 362 363 366 366 362 359 358 358 355 355 356 358 360 361
314 314 314 314 314 314 313 314 315 316 316 315 314 314 315 315 315 315 315 315 315 315 316 316 317 317 318 319 320 320 321 321 320 319 319 321 324 326 329 333 335 338 340 342 346 350 352 355 359 361 363 363 355 353 357 357 356 358 359 361 361 362 363 364 365 368 369 368 368 367 366 367 365 362 364 367 367 364 360 359 359 357 355 355 356 357 359
314 313 314 314 314 313 313 314 314 315 315 314 314 314 314 314 314 315 315 314 314 315 315 316 317 317 318 318 319 320 320 320 320 318 317 319 323 325 327 331 334 337 339 341 344 349 353 357 359 360 363 364 358 355 358 357 357 358 359 361 362 362 364 365 365 368 369 368 369 367 366 366 366 365 366 366 366 364 362 361 360 358 356 355 356 356 357
312 313 314 314 313 313 313 314 314 313 313 313 313 313 313 313 313 314 314 314 314 314 315 316 317 317 318 318 318 319 320 320 321 319 316 318 323 324 326 330 333 336 338 342 345 349 354 358 361 361 360 361 358 356 358 358 358 358 359 361 362 363 365 365 366 367 369 368 368 368 367 366 367 367 366 365 364 364 364 361 360 359 357 356 357 356 355
311 313 313 312 312 312 312 313 312 312 312 312 312 312 312 312 312 313 313 313 313 314 314 316 316 317 317 318 318 319 320 320 321 320 317 317 320 323 324 327 330 332 336 340 344 349 354 358 361 360 360 361 360 358 359 359 358 359 361 361 362 363 365 366 366 367 369 368 369 368 368 368 368 366 365 364 365 365 364 362 361 359 358 358 357 357 355
311 311 311 311 311 311 312 311 310 311 311 311 311 312 312 312 312 312 312 313 313 314 314 315 316 316 317 318 318 318 319 320 320 320 319 317 318 321 323 325 329 331 333 336 342 347 353 358 361 361 361 364 364 360 360 360 359 359 361 362 363 364 366 367 367 368 368 369 368 368 368 368 367 366 366 366 365 364 362 360 360 359 358 358 358 357 357
310 311 310 310 310 311 311 310 309 310 310 311 311 311 311 311 311 311 312 312 313 313 314 315 315 316 317 318 318 319 320 320 320 321 319 317 317 320 322 324 328 330 330 333 340 346 352 358 361 362 364 366 365 362 360 360 359 360 362 363 364 365 366 367 367 368 368 368 368 367 368 368 367 366 367 365 365 365 363 360 359 360 359 358 358 359 359
309 310 310 309 309 309 310 309 309 310 310 310 310 311 311 311 311 311 311 312 312 313 314 314 315 316 316 317 318 318 319 320 320 321 320 317 317 320 321 323 327 329 330 333 338 344 351 356 359 362 364 366 366 364 362 361 361 361 363 364 364 365 367 367 367 367 368 368 367 367 367 367 366 366 367 366 366 366 365 361 361 361 360 359 359 360 361
309 309 308 309 309 309 309 309 309 309 310 310 310 310 310 311 311 311 311 311 312 312 313 314 314 315 316 317 318 318 319 319 319 320 320 317 317 320 321 322 325 328 332 334 337 343 349 353 356 361 363 364 366 366 364 362 361 361 364 366 365 366 367 367 366 367 368 367 367 367 368 366 366 366 366 367 366 366 365 363 363 363 362 360 360 360 360
308 308 308 308 308 309 309 309 309 309 309 309 310 310 310 310 310 310 310 311 311 312 313 313 314 314 315 316 317 318 319 319 319 320 320 318 317 319 321 321 323 327 330 332 335 342 348 350 353 359 361 361 363 365 363 362 361 361 362 363 365 366 366 366 366 367 367 367 367 367 367 367 366 366 366 365 365 365 365 364 363 363 363 362 361 361 361
307 307 307 308 308 308 308 308 308 308 309 309 309 309 309 310 310 310 310 310 311 312 313 313 314 314 315 316 317 318 319 319 319 320 319 317 317 320 321 320 322 326 329 330 333 340 346 348 351 355 357 358 361 362 362 362 362 361 360 360 362 363 365 367 367 366 367 368 367 367 368 366 366 365 365 364 364 364 364 365 364 362 361 361 362 363 362
307 307 307 307 308 308 308 308 308 308 308 308 308 308 308 309 309 309 310 310 311 312 313 313 314 315 315 316 317 318 319 319 319 319 318 317 317 319 321 320 321 324 328 330 332 337 343 347 349 351 353 356 359 361 361 361 361 361 360 359 360 360 361 364 365 367 367 367 367 368 369 367 365 364 363 362 362 361 361 363 364 364 362 362 362 363 363
307 307 307 307 308 307 307 307 308 308 308 308 308 308 308 308 308 309 309 310 311 312 313 314 315 316 317 317 317 318 319 319 319 319 318 317 317 318 320 320 320 323 328 329 330 334 341 345 347 349 350 353 356 359 359 360 360 360 361 361 359 358 358 360 364 366 366 366 367 368 369 367 365 363 363 363 362 362 361 361 363 364 364 362 362 362 363
307 307 307 307 307 307 307 307 307 307 307 307 307 307 307 307 308 308 309 310 311 312 313 314 315 317 318 318 318 319 320 320 319 318 317 316 317 318 319 320 320 322 326 328 328 331 338 341 344 346 349 350 352 355 356 358 359 360 360 360 359 358 359 358 361 364 366 366 366 367 369 368 366 364 364 364 363 362 362 361 363 364 364 364 363 363 363
308 307 307 307 307 307 307 307 307 307 306 306 306 307 307 307 308 308 309 310 310 311 312 314 315 317 319 319 319 320 320 320 319 318 316 316 317 316 317 320 320 321 324 326 326 328 335 340 340 343 346 348 350 352 352 355 358 359 359 359 359 360 360 360 361 363 366 367 367 368 369 368 368 367 366 365 365 364 363 363 364 364 364 365 365 365 365
308 307 307 307 307 306 307 307 306 306 306 306 306 306 307 307 307 308 308 309 310 310 311 313 315 317 319 320 320 320 321 320 320 319 316 315 316 316 317 320 320 320 323 325 325 327 333 338 338 340 343 345 347 349 350 352 354 356 357 357 357 357 359 363 365 366 368 368 368 368 369 369 369 369 369 367 366 367 366 365 365 365 364 365 366 365 366
308 307 307 307 306 306 307 306 306 305 305 305 305 306 307 306 307 307 308 308 309 310 311 313 315 317 319 321 320 320 320 321 320 318 314 313 315 316 316 318 319 320 322 323 323 324 330 335 337 339 340 342 345 347 347 348 350 352 353 354 354 355 359 363 365 366 368 368 367 365 367 368 368 367 367 366 366 366 367 365 365 365 364 364 364 365 365
308 307 307 307 306 306 307 306 305 305 305 305 305 306 306 306 306 307 307 308 309 310 311 314 316 318 319 321 321 320 321 321 320 319 317 315 315 315 316 316 317 318 320 321 320 322 326 331 335 337 339 340 342 344 344 344 345 346 346 347 348 352 357 361 362 363 364 365 365 362 362 363 364 363 363 363 364 364 364 363 363 363 362 362 362 363 363
307 307 307 307 306 306 306 305 305 304 305 305 305 305 306 306 306 306 307 308 309 310 311 314 317 318 319 320 321 320 321 321 320 320 320 318 315 315 315 315 316 317 318 319 319 320 322 327 333 337 338 339 340 341 341 341 341 341 341 342 342 345 348 352 357 361 361 361 362 362 361 362 361 361 360 360 361 361 361 361 361 360 358 357 358 359 359
307 307 307 307 306 306 306 305 304 304 305 304 304 305 305 305 305 306 307 308 309 310 312 315 318 319 319 320 320 319 320 321 321 322 321 318 316 317 317 315 315 317 318 318 319 320 320 324 331 335 336 338 340 340 339 338 338 338 339 340 341 341 342 344 348 354 358 359 359 359 359 358 357 357 357 358 358 358 358 358 358 358 356 355 353 353 354
307 307 307 306 306 306 306 305 304 304 304 304 304 305 305 304 305 306 307 308 309 310 313 316 318 319 319 319 319 319 319 320 321 322 321 319 319 321 321 318 317 317 317 317 319 320 319 321 327 333 334 335 337 339 339 338 337 337 337 339 341 342 342 342 341 343 348 353 356 356 355 356 355 354 355 356 356 356 355 354 354 354 354 353 351 351 351
307 307 306 306 306 306 306 306 305 304 304 304 304 304 304 304 305 306 307 307 309 311 314 316 319 319 319 319 318 318 318 319 320 321 321 320 321 323 322 319 317 317 316 316 318 319 318 319 323 329 332 332 333 336 338 337 337 335 334 334 338 341 341 342 341 339 339 343 348 350 351 351 351 351 351 351 351 350 349 348 348 348 348 349 350 350 349
306 306 306 306 306 306 306 306 305 304 304 304 304 304 304 304 304 306 306 307 308 311 313 315 317 318 319 318 319 318 318 319 320 321 321 322 323 322 320 318 317 317 317 317 317 318 318 318 320 323 328 331 333 335 336 336 335 333 330 328 332 337 339 340 340 339 338 338 339 341 343 345 345 345 345 345 344 344 343 342 342 343 344 344 345 346 346
306 306 306 306 306 306 306 306 306 305 304 304 304 304 303 303 304 305 306 307 308 310 311 313 315 316 317 318 318 319 319 320 321 322 322 321 321 319 317 317 317 316 317 318 318 317 317 319 319 320 324 329 332 334 335 335 334 334 331 328 327 331 337 339 339 339 339 339 338 338 338 339 340 340 340 340 340 340 339 339 338 338 338 339 339 340 341
306 306 306 306 306 306 306 306 306 306 305 304 304 304 303 303 304 305 306 306 307 308 310 311 313 314 315 316 317 317 318 318 319 320 319 319 318 317 316 315 316 316 316 318 319 317 317 317 319 319 322 326 329 331 333 335 335 335 334 331 326 325 330 336 338 338 339 340 340 338 336 335 335 336 337 336 336 336 337 337 336 336 335 335 336 336 336
305 305 306 306 306 306 306 306 306 306 305 305 304 304 304 303 303 304 305 306 306 307 308 310 311 312 313 314 314 315 315 315 316 316 317 316 316 316 315 314 315 315 316 317 318 318 317 317 317 318 321 325 327 328 329 331 334 335 334 331 327 325 326 331 335 336 336 337 338 337 336 334 334 334 334 333 332 332 332 332 334 334 334 334 335 335 335
305 305 306 306 306 306 306 306 306 306 306 305 305 304 304 303 303 303 304 305 306 307 308 309 310 310 311 312 313 313 313 313 313 313 314 314 314 313 313 313 313 314 314 315 317 319 320 318 318 317 318 322 327 328 327 328 331 334 334 333 331 329 329 330 333 334 334 334 334 334 334 333 332 331 331 330 330 330 330 330 331 332 331 331 332 332 333
304 305 306 306 306 306 306 306 306 306 306 306 305 305 304 304 303 303 304 305 305 306 307 308 309 309 310 310 311 312 312 312 311 311 311 311 311 311 312 312 312 312 313 314 316 318 320 320 319 318 317 319 323 327 328 328 329 332 333 333 333 332 332 332 333 333 333 334 334 333 333 332 331 330 330 330 329 329 330 331 330 330 330 329 329 330 331
304 305 306 306 306 306 306 306 306 306 306 306 306 305 304 304 303 302 303 304 305 305 306 307 308 309 309 309 310 310 310 310 310 310 309 309 309 310 310 311 310 311 312 314 315 316 318 319 320 320 320 320 321 324 326 327 328 328 329 329 330 330 330 331 331 331 331 332 332 332 332 332 332 331 331 331 330 329 330 331 331 331 331 331 331 330 330
304 305 306 306 306 306 306 306 306 306 306 306 306 305 305 305 304 303 302 303 304 304 305 305 306 307 308 308 308 308 308 309 309 309 308 308 308 308 308 309 310 310 311 312 313 314 315 316 317 318 320 321 322 323 324 325 327 327 327 327 327 327 327 328 329 328 328 328 327 327 328 329 330 330 331 331 331 330 331 331 331 331 332 332 332 331 330
304 305 305 306 306 306 306 305 305 305 305 305 305 306 305 305 304 303 303 303 303 303 304 304 305 306 306 307 307 307 307 308 308 307 307 307 307 307 307 307 308 309 310 311 311 312 312 313 314 315 317 319 320 322 324 324 325 325 325 325 325 325 325 325 325 325 324 324 323 323 324 325 326 327 328 329 330 331 331 331 331 331 331 331 331 331 329
303 304 305 305 305 305 305 305 305 305 305 305 305 305 305 305 305 304 303 303 303 303 303 303 304 304 305 306 306 306 307 307 307 306 306 306 306 306 306 306 306 307 309 309 309 309 310 311 312 314 315 316 318 320 322 322 322 322 322 322 322 322 322 322 322 322 321 321 320 320 321 321 322 322 324 326 327 327 328 329 329 328 328 328 327 327 326
303 304 305 305 305 305 305 305 305 305 304 304 305 305 305 305 305 305 304 303 303 303 303 303 303 303 304 305 305 305 305 306 306 305 305 305 305 305 305 305 304 305 305 306 306 306 307 309 310 312 313 314 316 317 318 319 319 319 319 319 318 318 318 318 318 317 317 317 316 316 317 318 318 318 319 321 322 322 323 324 324 324 323 322 321 321 321
303 303 304 304 304 304 304 304 304 304 304 304 304 304 305 305 305 305 305 304 303 303 303 303 303 303 303 304 304 304 304 304 304 304 304 304 304 304 303 303 303 303 304 304 304 304 306 307 308 310 311 311 311 311 311 313 314 315 315 315 314 314 314 314 313 313 312 312 313 313 314 314 314 314 315 316 316 316 317 318 318 317 317 317 316 315 314
303 303 303 303 304 304 304 304 304 304 303 303 303 304 305 305 305 305 305 305 304 303 303 303 303 303 303 303 303 304 304 304 304 303 303 303 303 302 302 302 302 302 302 303 303 304 305 306 307 308 309 309 308 306 306 306 307 308 308 309 309 309 310 310 310 310 310 309 309 310 310 309 310 310 310 310 309 310 311 312 312 312 312 312 312 311 311
303 303 303 303 303 303 303 303 303 303 303 303 303 304 304 305 305 305 305 305 304 304 303 303 303 303 302 302 303 303 304 303 303 303 303 303 302 302 301 300 300 300 301 301 301 302 303 304 305 305 306 306 305 305 304 304 303 303 303 304 304 305 306 306 307 307 307 307 307 307 307 306 306 307 306 306 306 306 306 307 307 307 308 309 309 309 309
303 303 303 303 303 302 302 302 303 303 303 303 303 303 304 304 304 304 305 305 305 304 303 303 303 303 303 302 302 302 303 303 303 303 302 301 301 301 300 300 300 300 299 300 300 300 300 300 301 301 301 302 303 303 303 302 301 301 300 301 301 301 301 301 301 302 302 303 303 303 303 304 304 304 304 304 304 304 304 304 304 304 304 304 304 304 304
303 303 303 303 302 302 302 302 302 302 303 303 303 303 304 304 304 305 305 305 304 304 304 303 303 303 303 302 302 302 302 302 302 302 301 301 301 301 300 300 300 300 300 300 300 300 300 300 300 300 299 299 300 300 300 301 301 301 300 300 300 299 299 298 298 298 298 299 299 299 299 299 299 299 299 299 299 299 299 300 299 299 298 298 298 298 298
Wind_Speed
20 20 20 21 17 15 17 16 18 19 17 17 15 13 14 11 8 10 14 18 19 12 4 10 12 16 14 17 21 23 24 23 21 23 26 27 18 8 13 8 7 19 35 44 43 44 45 43 41 40 40 41 41 41 42 42 40 39 40 41 42 42 43 42 43 44 44 44 43 43 42 41 41 39 38 37 36 34 34 34 34 34 32 32 32 33 33
20 20 19 20 20 18 18 19 18 18 18 18 17 16 16 14 14 16 17 20 21 11 5 9 9 11 16 19 21 23 24 22 23 22 21 25 26 22 25 26 24 19 10 26 38 43 45 45 42 39 38 39 39 39 39 40 40 38 39 41 42 42 44 44 44 44 43 43 43 43 42 42 42 42 39 38 37 36 36 35 34 34 33 32 32 33 33
16 18 18 19 21 19 19 19 18 17 18 19 18 17 16 14 16 18 18 20 15 4 6 7 8 11 15 17 16 16 20 21 22 22 21 22 23 25 27 26 23 25 21 7 10 21 28 35 39 36 35 37 37 36 37 38 39 38 38 42 43 44 44 44 44 44 44 44 43 43 44 43 43 43 41 39 39 38 37 36 35 34 34 34 33 33 33
12 14 17 18 19 19 20 20 19 18 18 17 16 15 14 14 15 17 18 16 7 4 7 10 11 11 10 11 12 11 13 17 19 20 20 22 23 24 25 25 23 21 19 16 9 3 6 15 26 28 28 31 33 34 35 36 38 37 37 40 43 44 43 42 43 44 44 44 44 44 44 44 43 44 43 41 40 39 38 38 37 35 35 35 35 33 32
10 14 16 15 16 16 15 15 16 18 18 18 18 17 18 18 15 13 13 7 2 8 9 10 11 9 7 8 11 11 11 14 16 18 19 20 21 22 22 22 22 19 14 11 9 9 9 8 19 22 22 26 29 31 33 34 35 36 36 38 41 43 42 42 43 44 45 45 45 45 45 45 44 44 44 43 41 41 40 39 38 37 37 37 37 35 33
9 13 13 12 13 12 10 10 11 12 13 15 17 17 18 18 16 14 15 9 2 5 7 9 10 9 10 9 10 14 14 13 14 16 17 18 18 19 19 19 19 18 15 12 8 7 11 8 14 21 22 25 26 28 30 31 32 35 35 36 39 42 42 42 43 44 45 45 46 46 45 45 45 44 45 45 43 42 41 39 39 38 38 37 38 38 36
9 11 9 10 10 10 10 10 8 10 10 10 12 15 17 17 16 15 15 15 13 5 4 6 8 10 10 8 12 15 15 15 15 15 16 18 18 17 17 17 17 18 16 13 12 10 11 12 9 14 18 23 24 24 27 29 30 33 35 35 38 42 42 42 42 43 45 46 46 46 45 45 46 45 45 46 45 42 40 39 39 39 38 38 37 39 39
8 8 8 9 7 8 12 8 10 12 8 7 10 12 14 11 9 10 12 15 18 12 5 7 10 12 10 4 13 18 17 17 18 16 16 17 18 17 18 17 17 18 16 13 12 11 9 11 12 13 15 21 23 23 27 30 30 32 35 35 37 41 42 42 42 43 45 46 46 46 46 46 46 46 46 46 46 44 40 38 37 38 38 38 37 37 39
7 8 9 9 8 10 11 5 8 9 6 7 7 6 5 9 15 15 13 15 18 18 17 16 15 16 13 3 9 19 21 19 19 17 16 17 17 17 18 17 16 17 16 14 14 14 12 10 11 13 16 21 24 25 29 33 32 33 35 36 37 41 42 43 43 44 45 46 46 46 46 47 47 47 47 46 46 45 42 37 35 36 37 37 36 35 37
7 9 9 7 9 8 4 2 6 8 6 6 6 6 3 9 18 19 15 13 15 17 19 21 19 15 11 6 6 18 23 21 21 20 18 19 19 19 19 19 19 18 17 18 18 17 16 15 14 15 17 21 27 30 31 34 35 36 38 39 40 42 44 45 44 44 45 45 46 46 46 47 47 47 47 47 46 45 44 39 35 34 36 36 35 34 35
8 8 7 7 8 4 2 4 7 10 9 8 6 6 4 6 16 20 16 13 14 15 18 21 18 11 5 3 8 19 23 22 22 21 21 21 21 20 19 19 21 22 21 20 19 16 15 15 14 17 20 22 29 36 37 37 37 39 42 43 44 46 47 46 45 44 44 44 46 46 46 47 47 46 46 46 46 45 45 42 36 33 34 34 34 33 33
11 10 8 7 4 1 5 7 8 11 11 9 5 5 2 8 16 18 16 15 14 16 18 18 13 8 6 8 15 21 22 21 21 21 21 22 23 22 22 20 21 23 23 22 20 17 17 16 14 16 20 24 29 37 41 40 39 40 43 44 45 46 46 45 44 43 44 44 45 46 46 46 45 45 44 44 44 44 45 43 39 35 33 32 32 31 31
10 11 10 7 2 2 7 11 11 11 11 7 4 3 2 10 15 15 15 15 14 15 16 13 10 11 13 16 20 23 22 21 21 22 22 23 22 21 22 21 21 23 24 24 23 20 20 19 16 14 17 22 27 33 40 42 41 41 43 44 43 43 43 44 43 43 43 44 44 44 45 44 43 41 41 42 42 43 44 44 41 37 34 32 31 30 29
8 9 9 8 3 2 11 15 10 8 7 5 2 4 7 11 14 14 14 14 14 15 16 13 12 16 19 20 20 21 22 22 22 22 24 24 23 21 20 20 20 23 25 26 25 23 21 20 18 14 14 21 27 30 37 43 42 40 40 41 41 41 42 42 42 42 43 43 42 42 41 42 42 38 36 37 40 41 43 42 41 39 36 33 31 30 29
6 7 8 7 3 4 13 14 8 6 6 3 4 9 11 11 12 14 14 14 14 16 17 17 18 19 20 20 19 20 21 21 21 22 24 25 25 24 22 21 21 23 25 26 25 24 21 21 20 16 14 19 27 29 35 44 44 38 36 38 40 41 41 41 40 40 41 41 41 41 39 39 41 39 34 34 36 40 41 40 39 39 38 36 33 30 29
3 4 3 3 3 5 11 10 5 4 6 6 8 11 12 12 13 13 15 15 14 16 18 20 22 22 21 19 19 20 21 20 20 22 24 26 26 25 24 23 23 23 24 25 25 23 21 21 21 18 15 18 26 29 34 42 43 37 35 37 40 41 41 42 41 39 39 39 40 40 38 35 37 39 37 35 36 38 40 39 38 39 39 39 37 33 30
3 4 4 3 3 6 10 9 6 6 6 7 10 11 13 14 13 13 15 17 17 17 18 19 21 22 22 21 21 22 22 22 22 24 26 26 26 26 26 24 23 23 23 24 24 23 21 19 19 17 16 20 25 29 33 39 41 37 35 38 40 41 42 42 41 40 39 38 38 39 38 36 36 38 39 38 37 37 38 39 38 38 39 39 39 38 34
6 5 5 5 7 11 12 8 6 6 7 8 11 12 14 14 14 14 16 18 18 18 18 19 19 20 21 23 23 22 23 23 23 27 29 26 26 28 28 25 24 24 23 22 22 22 22 19 16 16 16 19 24 29 32 38 41 38 36 38 41 42 42 42 41 40 39 37 37 37 36 36 36 39 39 38 37 37 38 39 38 38 38 39 39 39 38
8 5 4 9 14 16 12 7 7 9 10 11 12 14 15 16 17 17 17 18 19 19 18 18 19 19 20 22 23 22 23 22 23 27 29 27 26 29 29 27 27 26 25 24 22 22 22 19 15 15 15 15 21 29 33 37 40 39 38 39 42 42 42 42 41 41 40 39 37 36 36 37 37 37 37 37 37 38 39 39 38 38 38 38 38 39 39
7 6 8 15 19 15 8 8 11 13 13 14 16 16 17 18 18 18 18 19 19 19 18 18 20 20 19 20 21 22 21 21 22 24 27 27 27 29 30 28 27 27 28 27 24 22 21 18 14 14 13 12 17 28 34 36 39 40 38 40 43 43 42 42 41 41 41 40 39 38 38 37 35 34 35 36 37 38 40 41 40 40 39 39 39 39 39
7 6 9 17 17 9 6 12 16 16 15 17 18 17 17 18 18 18 19 19 19 19 20 20 20 21 19 18 19 20 21 21 21 23 26 26 25 29 31 28 26 29 31 28 24 21 18 15 12 12 13 11 14 26 32 34 37 39 38 40 42 43 42 41 40 41 41 41 40 38 37 36 34 34 35 35 34 36 38 39 39 40 40 39 39 38 37
5 6 10 14 10 7 10 17 19 18 18 19 19 18 18 18 19 19 20 20 20 20 20 19 20 21 20 18 18 19 20 21 20 22 25 24 24 28 31 28 28 30 30 28 25 20 14 11 11 13 16 14 15 23 29 32 35 35 35 39 41 41 40 40 40 41 42 41 41 39 36 38 39 38 37 35 34 34 36 37 36 36 37 37 37 35 33
6 9 13 13 10 10 16 20 20 19 20 19 18 19 19 18 19 20 20 21 21 21 20 19 19 21 21 18 17 19 20 20 20 20 21 21 22 26 29 30 32 32 30 28 26 21 14 11 11 13 16 16 16 21 26 30 33 32 30 34 38 40 40 39 39 42 42 41 41 40 38 40 42 41 39 38 36 33 34 34 34 33 33 33 33 33 32
9 11 13 14 14 15 18 20 20 19 19 18 18 18 18 18 19 20 20 21 22 22 22 21 20 21 21 19 18 19 20 20 19 19 19 18 19 23 27 31 34 33 32 33 31 24 17 13 10 11 13 15 17 21 24 26 31 33 31 29 31 36 39 39 38 41 41 41 41 40 39 41 43 42 40 39 37 35 34 33 33 33 33 31 31 31 32
10 11 12 14 15 16 17 17 17 16 16 17 18 18 18 18 19 20 21 22 22 21 22 22 22 21 20 19 18 19 19 19 18 18 18 18 16 20 26 31 33 33 33 34 33 26 17 11 8 6 8 11 15 20 23 24 27 32 34 32 30 31 35 38 40 41 40 40 40 40 39 41 42 41 39 38 38 37 36 34 33 33 33 33 32 31 31
11 12 12 13 14 14 14 15 16 17 17 18 18 18 18 19 19 20 20 21 21 21 21 22 22 21 20 18 18 18 18 18 18 17 17 17 16 17 23 30 33 31 30 31 31 27 17 11 10 10 6 7 12 17 22 26 26 28 32 35 35 33 33 35 40 43 41 40 41 39 37 39 40 39 39 38 37 38 37 35 34 34 33 34 34 33 32
11 11 11 12 13 14 15 16 18 19 19 17 17 18 18 18 18 19 19 19 19 19 19 19 20 19 19 18 17 17 16 16 16 16 15 15 15 15 20 27 30 30 30 31 31 28 21 15 13 13 11 4 5 14 21 26 28 28 29 33 37 38 34 33 39 43 40 39 40 38 34 36 37 36 37 37 36 36 37 36 35 35 34 34 35 34 33
12 12 10 9 12 17 17 16 18 19 18 17 17 17 17 17 17 18 18 18 17 16 16 17 16 16 17 17 16 16 15 15 16 16 15 15 15 14 17 23 27 29 30 32 32 29 25 23 19 16 15 12 4 6 13 19 24 27 29 31 34 36 34 34 38 43 39 36 38 37 32 33 34 32 33 34 33 33 35 35 34 34 33 33 33 32 32
13 13 11 9 11 16 17 16 17 19 18 17 17 16 16 17 17 17 17 17 16 15 15 15 15 14 14 14 14 15 15 14 15 15 14 15 16 15 16 19 23 27 29 31 32 29 26 27 26 22 18 16 10 2 5 11 19 24 26 27 27 30 34 36 37 37 36 35 37 36 31 30 30 28 28 30 30 30 31 32 33 33 33 31 30 30 30
13 14 14 11 12 15 16 16 18 20 19 18 18 17 16 16 17 18 18 18 17 15 15 14 13 12 11 10 12 14 14 13 14 15 14 14 16 16 15 16 19 25 29 30 31 30 27 27 27 25 23 21 16 10 4 4 12 18 22 23 19 18 27 36 36 33 34 34 34 35 33 30 28 28 28 29 28 27 27 30 33 33 32 30 29 30 31
12 14 14 14 14 15 15 16 19 21 20 20 20 19 17 17 19 20 21 20 18 17 16 14 12 10 10 10 11 13 13 12 14 15 13 13 16 16 13 13 15 20 26 28 29 29 28 27 26 24 24 24 19 16 12 6 5 9 14 20 16 10 18 30 31 31 35 36 33 31 32 31 29 28 28 27 27 26 27 29 30 29 28 27 28 30 31
12 14 15 15 16 16 15 17 21 22 21 21 22 20 19 20 21 22 21 20 19 17 17 14 11 10 9 6 7 10 11 10 12 13 11 10 13 15 12 12 13 14 18 23 26 27 27 28 28 25 23 23 22 21 20 16 12 10 8 8 7 6 12 21 23 23 29 34 33 30 29 29 28 27 25 25 26 27 28 28 27 26 26 26 28 29 29
12 14 16 17 18 17 15 17 22 23 22 22 23 21 20 21 22 21 20 20 18 17 17 15 11 8 7 3 4 7 8 9 9 9 9 8 10 12 12 12 13 13 15 19 24 26 26 26 27 27 24 22 21 21 23 22 18 15 14 14 13 12 11 13 15 17 21 26 29 29 27 27 26 23 21 21 23 24 24 24 25 25 25 25 25 25 24
11 13 14 16 17 16 15 17 21 22 22 23 23 22 21 22 23 22 21 20 19 18 17 15 9 5 4 3 3 4 7 9 9 8 8 7 8 9 10 11 12 12 12 15 20 24 25 25 25 26 25 22 21 21 22 23 22 18 15 15 16 17 17 16 14 15 18 22 23 22 22 21 19 17 16 17 17 18 19 20 22 23 23 21 20 19 20
10 11 12 14 15 15 14 17 20 21 22 24 24 23 23 23 23 22 22 21 20 20 19 14 7 2 2 3 3 4 7 8 8 7 6 6 6 5 5 8 10 9 9 12 16 20 23 24 22 22 22 22 22 23 22 22 23 23 21 19 18 18 18 19 19 16 17 19 19 17 16 16 16 16 16 17 18 17 17 17 18 19 18 18 18 21 24
10 11 12 13 14 15 14 16 19 20 21 23 24 24 25 24 23 23 23 22 21 21 20 16 7 1 3 2 1 2 3 4 4 4 5 5 4 1 3 6 7 7 8 11 14 17 20 21 20 19 18 18 19 21 22 22 23 24 23 23 23 22 21 21 22 22 20 19 18 17 15 14 14 15 16 17 18 18 18 18 17 18 19 22 24 27 28
10 11 11 12 14 14 14 15 18 20 21 22 24 24 25 25 24 24 24 23 22 21 22 20 16 10 6 5 6 5 4 1 0 2 3 4 4 2 4 7 7 5 6 10 14 16 17 17 18 17 16 16 16 18 20 21 21 21 21 22 24 25 24 22 22 23 23 21 18 16 15 14 15 15 15 15 15 16 18 21 22 23 25 27 28 28 28
10 10 11 11 13 14 14 14 17 19 20 22 23 25 26 25 24 24 24 23 22 22 22 22 22 19 13 9 9 9 9 8 8 8 7 6 4 5 8 10 11 10 9 9 11 15 15 13 13 15 15 15 15 16 19 20 18 18 19 19 20 23 25 24 23 21 21 20 18 15 14 14 15 15 15 14 14 16 19 22 25 26 26 27 26 26 24
10 10 11 11 11 13 13 14 16 17 19 22 23 24 25 25 24 24 26 25 23 22 21 21 22 22 21 19 17 15 13 13 13 14 14 12 10 9 11 12 13 12 11 9 8 11 12 8 7 10 13 13 12 13 15 16 15 17 18 16 15 17 20 21 21 20 19 18 17 15 15 15 15 15 16 17 18 19 20 22 23 23 23 22 21 20 17
10 10 10 10 10 11 13 14 15 16 17 20 23 24 25 26 26 26 27 27 25 24 23 22 21 21 22 23 21 19 18 17 15 14 15 15 13 11 12 13 13 12 11 9 7 6 8 6 3 4 8 10 9 9 10 11 11 12 14 14 13 14 15 16 17 18 17 16 16 15 15 15 15 15 16 17 19 21 22 21 21 19 17 16 16 15 14
11 11 9 8 8 10 12 13 15 15 15 17 21 24 25 26 26 26 27 28 27 26 25 23 21 20 21 21 21 21 21 20 19 17 16 16 15 15 15 15 15 14 12 9 6 4 5 5 2 0 3 6 7 7 6 7 7 9 10 10 11 13 13 12 13 15 15 15 16 16 15 15 15 17 17 18 19 20 20 20 20 19 17 17 17 17 17
11 10 9 8 8 9 11 12 14 15 15 16 19 23 24 25 25 26 26 26 28 28 27 25 22 21 21 21 21 21 21 21 21 20 19 19 18 17 16 16 16 15 12 8 6 6 5 5 4 1 1 1 3 5 4 5 8 9 9 7 6 6 7 7 9 11 11 12 13 14 13 14 15 17 18 18 19 19 18 19 21 22 22 22 23 22 21
10 10 10 9 8 8 10 12 14 15 16 16 17 20 22 23 24 25 25 26 27 29 29 27 24 23 23 22 21 21 21 21 20 19 20 20 19 17 15 14 15 15 12 9 9 9 8 8 7 5 2 2 3 3 3 1 4 7 8 7 5 3 3 4 6 7 8 9 10 11 11 12 13 14 15 16 18 19 19 19 21 22 21 21 21 22 22
10 10 9 9 8 8 9 11 12 14 15 15 16 17 18 21 22 24 25 26 26 27 28 28 26 24 24 23 22 21 21 20 19 19 19 19 20 20 17 14 13 13 13 12 13 13 12 11 10 8 5 2 2 4 4 3 2 4 6 6 6 6 6 7 7 8 10 11 12 12 12 13 13 14 15 16 17 18 19 19 20 21 20 20 20 22 22
10 10 10 10 9 9 9 10 11 13 14 14 15 15 16 18 20 22 23 25 25 26 27 28 27 25 24 22 22 21 21 21 20 20 20 21 21 21 19 18 16 14 13 14 15 15 14 12 11 9 6 4 1 2 4 5 5 6 7 7 7 8 9 10 10 10 12 13 13 13 13 13 13 13 15 16 17 18 19 20 21 21 21 21 22 23 23
8 9 10 11 11 11 10 10 11 12 13 14 15 15 15 16 17 19 21 23 23 24 25 26 26 25 23 21 20 20 21 21 22 22 21 20 20 19 18 19 20 17 15 16 17 16 13 11 10 8 6 5 4 6 7 8 8 9 9 10 10 10 11 12 12 13 13 14 14 14 14 14 13 14 14 15 16 18 18 19 20 22 23 24 24 24 24
8 8 9 11 11 11 10 11 11 12 13 14 15 15 14 14 15 16 18 20 21 21 22 24 24 24 23 22 21 20 19 20 22 22 20 19 19 18 18 19 20 19 19 20 20 18 16 13 11 10 9 10 10 12 12 12 11 11 12 12 13 13 14 15 15 16 16 16 16 16 16 15 16 16 16 16 16 17 17 18 20 22 24 26 27 27 27
7 7 8 9 10 11 11 12 12 12 13 13 14 13 13 13 13 13 15 17 18 18 20 21 23 23 22 21 21 21 20 20 21 22 20 20 20 20 19 19 19 19 19 20 20 19 17 15 15 15 15 17 19 20 20 18 17 17 16 16 17 17 18 19 19 19 19 19 19 19 18 18 18 19 19 19 20 19 19 20 22 23 24 26 27 28 28
5 7 7 8 9 10 11 11 12 12 12 13 13 12 12 12 12 13 13 15 16 17 18 19 21 22 22 21 20 21 21 21 21 22 21 21 21 22 23 24 24 24 24 23 22 21 19 18 18 18 18 19 22 25 25 24 24 23 22 22 21 21 20 20 20 20 20 20 21 21 22 22 23 23 24 24 24 24 23 23 24 25 25 25 26 25 25
5 6 7 7 8 9 10 11 11 11 11 11 12 12 11 11 11 12 13 13 13 15 16 18 19 20 20 20 19 19 19 20 20 21 21 20 20 21 24 27 30 31 31 31 30 29 28 27 26 25 24 24 25 25 25 24 24 25 25 25 26 25 23 23 22 22 22 22 22 23 23 23 24 24 25 26 26 26 26 26 26 25 25 25 24 24 23
5 5 6 7 7 8 9 10 10 10 10 10 11 11 11 10 10 11 12 12 12 12 14 17 18 18 18 19 19 18 18 18 19 21 22 24 25 26 27 29 31 32 32 33 33 33 33 32 32 31 31 30 29 28 27 27 28 28 28 28 29 29 29 28 28 27 27 26 26 26 25 24 24 24 24 24 24 24 24 24 24 23 23 22 22 21 20
4 4 5 6 6 7 8 9 9 9 10 10 11 11 11 11 11 11 11 11 11 11 13 15 17 17 17 19 19 18 17 18 19 21 23 25 26 27 27 27 28 28 28 29 29 29 29 29 29 29 29 30 29 28 28 28 28 28 27 28 29 30 30 30 29 29 29 28 28 29 28 27 26 26 26 25 24 23 23 23 22 23 23 23 22 22 21
Wind_Direction
266 271 278 284 285 281 278 279 281 282 288 290 282 281 288 299 305 282 290 302 284 269 21 48 18 355 10 34 23 16 20 25 28 33 32 22 15 102 118 79 104 158 176 183 187 193 195 195 197 197 198 198 199 201 201 202 202 201 199 197 197 199 199 200 202 204 206 208 209 209 210 209 207 207 207 207 207 210 213 213 210 207 208 214 220 221 221
264 265 271 278 278 271 268 267 267 271 277 280 279 280 283 285 285 277 278 285 279 277 15 47 45 11 10 34 34 13 4 12 23 29 33 27 22 31 38 33 36 52 121 179 189 194 196 196 197 197 196 196 197 199 200 201 201 200 199 198 198 199 201 202 203 203 203 204 206 207 207 208 208 206 206 207 206 208 213 214 212 208 206 210 218 222 220
264 265 269 273 271 266 264 263 263 267 273 274 273 274 277 279 279 279 276 272 272 306 4 357 43 48 23 24 35 20 0 0 15 23 25 24 20 20 24 25 26 30 36 62 185 198 200 198 196 196 196 195 197 199 200 200 200 200 200 200 200 201 203 203 203 202 202 203 204 205 206 208 208 206 205 206 207 208 211 215 215 211 208 208 214 220 221
262 263 261 262 265 263 259 258 259 262 265 267 266 265 267 266 266 270 269 263 269 16 9 358 22 46 40 26 27 25 8 1 8 16 18 17 15 14 18 19 15 15 21 26 29 356 257 208 193 194 197 198 199 200 201 201 200 199 200 200 201 202 203 203 203 203 202 202 203 204 206 208 209 207 205 205 207 208 209 213 216 214 211 208 210 215 220
258 260 260 264 265 257 250 249 251 254 257 261 262 259 257 258 263 266 261 251 21 19 12 14 15 21 36 33 31 30 19 9 9 12 13 13 12 11 13 12 6 360 357 3 19 15 342 258 206 203 212 212 208 205 204 203 201 200 201 201 201 202 204 204 204 204 203 202 203 205 206 207 208 207 205 205 207 208 209 211 214 215 214 211 210 212 217
259 256 260 266 260 250 249 257 262 268 272 271 269 264 257 254 255 260 258 256 320 32 35 21 1 356 358 9 42 44 26 15 13 10 10 11 8 6 7 5 356 348 344 333 320 344 350 310 222 213 225 228 219 211 209 208 204 202 202 202 202 203 204 205 205 204 204 203 204 205 206 206 207 207 206 205 206 208 209 210 213 215 215 214 213 212 214
264 258 253 252 247 246 256 275 320 328 304 303 308 293 273 261 261 272 277 278 276 253 105 42 354 342 342 8 53 48 29 23 18 9 8 7 3 358 357 354 344 337 338 329 303 305 338 331 264 226 231 233 226 216 213 212 209 206 205 204 203 204 204 205 206 205 204 204 204 205 205 205 206 207 207 207 206 207 209 209 212 215 216 216 216 215 214
260 255 241 240 247 261 259 273 6 2 326 340 339 290 269 280 318 348 350 327 310 306 352 19 356 339 328 18 58 39 24 21 16 8 5 0 356 353 349 344 336 327 328 323 302 293 313 321 296 268 243 230 226 219 213 213 212 209 208 207 204 203 204 205 207 207 206 205 205 205 205 205 206 208 209 208 207 207 207 208 210 215 216 216 217 218 217
245 248 246 247 258 268 265 277 16 9 347 358 347 276 273 3 11 11 11 359 345 346 359 2 353 336 313 290 53 29 15 10 6 3 1 354 350 347 340 335 330 321 312 302 288 276 274 279 275 267 251 232 226 220 213 213 212 208 209 211 207 204 204 206 208 208 208 206 206 205 205 205 207 208 209 208 207 206 206 206 207 211 215 216 216 218 219
239 247 251 252 249 252 256 351 351 347 351 347 315 272 289 16 10 3 7 8 355 353 357 352 343 329 295 250 40 19 5 359 357 354 351 348 345 341 337 335 327 312 298 292 288 280 275 268 251 249 252 238 226 222 216 213 211 208 207 210 210 207 206 207 208 209 209 207 206 206 205 206 207 208 209 209 208 207 206 205 204 206 212 215 217 219 221
240 238 241 246 245 245 50 17 327 331 347 351 322 272 261 5 3 360 3 1 351 352 354 347 341 333 296 270 8 5 357 352 350 347 345 342 340 336 334 330 320 308 299 294 290 281 272 266 254 253 259 246 228 221 215 211 211 209 206 207 210 210 209 207 207 208 209 208 207 207 207 207 207 207 208 208 208 207 208 207 205 206 210 214 216 218 220
240 236 239 246 236 80 29 357 331 328 333 338 312 244 242 2 356 355 356 349 345 349 350 347 347 351 347 336 335 340 346 347 344 342 340 337 336 336 333 325 315 309 305 299 293 279 265 261 257 254 259 256 238 222 213 210 211 210 207 207 209 210 209 206 206 208 208 208 208 208 208 207 207 207 207 208 208 207 208 209 208 207 210 213 214 216 218
240 236 237 247 220 60 357 339 337 330 313 295 269 242 330 345 340 347 352 344 338 341 342 343 343 336 332 327 322 326 337 341 339 338 336 332 330 331 330 326 320 312 305 299 294 282 269 266 263 254 257 260 248 226 212 210 211 210 208 207 207 208 207 204 204 207 208 207 207 208 208 208 206 206 208 209 209 208 208 210 210 210 211 212 214 217 219
240 239 242 247 211 45 346 333 336 337 308 262 262 330 327 325 329 336 342 342 341 339 335 330 323 319 321 321 321 325 332 335 336 335 333 330 328 327 325 323 320 315 306 300 295 283 270 265 264 264 266 262 252 234 215 209 210 210 208 206 205 206 206 203 203 205 206 206 207 207 208 208 207 205 206 208 210 210 210 210 212 212 211 212 214 217 219
239 240 249 254 233 16 357 346 347 4 352 320 321 324 316 315 321 323 326 334 341 338 332 326 320 317 317 317 319 321 326 330 333 333 331 330 330 331 330 326 325 321 312 304 298 287 273 265 263 268 275 263 252 240 221 211 209 209 207 204 204 205 205 202 202 203 204 205 206 206 206 207 207 207 205 204 207 210 210 210 212 212 211 211 213 216 219
265 247 253 261 258 329 351 350 337 344 350 334 318 315 314 315 314 311 313 318 325 328 325 321 319 317 315 315 315 317 320 325 329 331 331 330 331 334 334 331 329 326 317 311 303 288 274 269 266 269 282 271 252 240 226 213 207 205 205 204 203 204 204 202 201 203 204 204 205 205 205 205 205 205 204 202 203 208 210 210 210 211 212 211 212 214 217
306 286 293 305 299 318 337 346 341 329 329 325 317 312 310 312 311 308 306 305 308 315 316 315 315 314 312 313 314 315 319 322 327 331 332 330 330 334 335 332 329 327 322 318 310 293 277 272 268 267 278 273 253 238 226 213 204 201 204 203 201 202 204 202 201 202 203 203 204 204 204 203 201 201 201 202 203 207 210 209 209 210 212 212 213 214 215
321 299 301 339 348 337 337 354 9 346 325 321 318 311 307 308 306 304 303 300 300 304 307 308 309 308 310 312 312 314 317 319 324 329 330 330 329 331 334 334 332 329 324 319 312 298 282 272 265 259 262 261 250 237 224 211 201 199 202 203 200 201 202 201 201 202 202 202 203 202 202 202 202 201 201 201 203 205 208 208 208 209 211 212 214 215 216
333 316 343 358 344 331 334 2 13 351 337 328 320 310 305 303 301 300 300 298 297 298 298 299 301 303 307 309 309 311 314 316 321 326 328 330 329 329 334 337 334 333 331 326 319 307 289 273 261 254 256 257 247 233 219 207 199 198 202 203 200 200 201 200 200 201 201 201 201 199 198 200 201 201 201 200 201 204 207 207 207 209 211 212 213 215 216
319 290 319 338 332 330 355 17 356 341 334 327 320 312 306 301 297 298 299 298 296 294 292 293 296 300 302 305 306 307 310 313 318 320 324 329 330 328 333 337 334 336 338 333 328 317 298 279 261 252 260 267 243 223 210 202 197 197 202 204 201 199 200 200 200 200 201 200 200 198 197 198 199 199 200 200 201 205 208 209 208 208 210 211 213 216 217
308 293 324 337 334 333 359 353 339 330 323 317 313 309 306 301 298 298 297 296 295 291 288 289 292 295 299 303 304 303 305 309 315 316 319 326 330 330 333 336 333 335 338 336 332 326 306 282 265 258 262 261 228 214 208 202 198 199 201 202 201 199 198 198 199 199 199 199 198 197 195 196 196 196 198 199 201 204 208 211 211 211 211 213 215 216 217
312 322 335 339 332 313 317 324 324 320 317 313 308 306 305 300 299 300 298 296 294 290 286 286 287 290 294 298 300 299 299 302 308 313 315 321 329 333 336 337 333 333 339 341 340 340 325 294 277 267 260 247 214 203 203 200 197 200 204 203 200 199 197 197 198 199 198 197 196 195 192 193 195 195 195 196 198 201 205 209 210 212 214 215 216 217 217
306 321 329 332 323 306 308 315 316 315 314 312 308 308 306 303 301 300 297 296 295 291 287 284 282 285 287 290 293 295 294 296 303 308 310 316 329 336 340 341 338 336 342 347 350 355 355 329 295 265 256 250 223 204 201 200 198 201 205 204 201 198 196 197 199 198 196 195 195 193 191 193 196 195 192 193 195 198 203 206 207 209 212 215 216 216 217
307 319 328 328 318 309 309 312 314 312 312 312 310 307 304 304 301 296 292 291 289 288 287 283 280 281 283 284 287 289 290 293 299 304 305 311 326 338 340 341 342 342 344 348 355 5 10 349 306 259 244 245 228 210 208 210 207 206 207 207 204 200 198 198 199 197 194 194 193 190 191 194 196 195 193 192 193 196 200 205 206 207 209 211 213 214 216
315 319 323 319 312 311 314 316 315 313 313 314 311 304 302 302 299 294 291 288 285 284 284 282 280 279 279 280 283 283 285 288 291 297 302 307 322 338 338 338 343 346 346 350 359 7 13 9 344 302 257 240 225 213 214 218 215 212 212 211 210 207 203 202 200 196 194 193 191 189 192 196 195 194 194 194 195 197 199 202 205 208 209 210 210 212 214
319 320 320 316 312 314 321 322 320 319 318 314 309 305 303 301 298 295 292 288 285 283 280 279 279 279 276 277 278 276 277 281 286 294 301 304 315 335 338 337 342 347 348 354 1 6 16 40 38 15 339 250 219 208 211 215 214 213 212 210 211 215 216 212 203 196 193 193 190 188 193 196 194 194 196 196 198 200 200 201 204 207 208 209 210 212 214
328 331 328 320 317 323 328 326 322 321 321 318 314 311 308 305 302 300 296 291 287 283 279 277 278 276 274 275 274 272 272 274 279 287 293 293 303 326 338 338 342 348 352 356 1 6 20 43 49 36 25 4 215 196 197 205 209 211 211 210 211 217 223 220 206 195 191 191 188 186 191 194 192 193 196 198 201 204 205 205 206 206 208 211 212 213 216
334 340 337 324 321 325 326 324 322 324 326 324 320 317 314 311 309 306 303 299 295 289 283 280 275 272 273 274 271 269 270 268 271 279 283 281 289 316 339 340 340 348 355 358 358 3 18 33 36 37 44 47 55 195 201 203 204 205 208 211 213 217 224 221 206 194 189 187 185 185 188 191 191 192 194 196 201 206 208 209 209 210 212 213 213 214 217
334 339 339 333 326 326 328 329 329 330 331 329 325 323 321 318 316 313 311 309 305 299 292 286 278 272 272 272 267 265 264 263 267 276 279 276 282 307 338 343 339 345 355 358 356 1 19 32 30 29 41 54 60 48 247 218 200 195 199 205 212 218 220 214 202 191 185 181 180 182 184 184 183 185 188 193 199 205 207 208 210 214 216 215 214 216 217
332 335 338 341 338 335 335 336 335 335 336 334 331 329 327 325 322 320 319 317 312 307 303 297 290 280 274 271 266 261 259 260 265 270 274 278 283 301 334 348 344 347 355 355 355 3 18 28 28 27 30 38 53 64 42 229 203 195 194 196 198 203 203 199 193 186 180 176 175 178 181 179 176 176 181 186 191 196 199 202 206 212 215 215 216 218 219
332 332 336 344 347 344 343 342 339 338 338 338 337 335 334 335 333 329 327 326 322 316 312 309 301 294 291 282 266 256 254 258 263 266 274 286 288 294 325 356 359 356 355 351 351 1 14 22 27 30 28 29 47 73 77 85 173 190 193 195 193 178 177 182 181 174 170 167 164 166 171 172 173 176 180 182 182 183 188 193 199 207 212 214 217 220 221
335 333 338 346 348 349 350 346 342 341 341 342 342 341 339 340 339 334 331 330 326 320 321 323 316 311 316 300 256 248 250 252 259 265 275 292 293 292 312 350 6 3 356 350 348 354 5 15 24 32 32 32 46 67 72 73 86 93 101 142 164 157 164 171 169 161 159 157 153 151 155 160 164 167 172 177 179 181 184 188 195 203 210 214 216 218 220
338 337 343 348 349 352 355 349 344 344 345 345 345 343 342 342 342 339 338 337 330 325 330 336 330 320 326 320 249 249 250 245 252 265 270 282 297 297 306 332 353 359 356 352 348 348 353 6 21 33 40 40 47 61 65 64 69 71 63 61 68 77 99 131 150 158 159 155 150 150 153 156 157 158 162 171 178 184 189 193 198 205 211 215 218 220 221
340 340 344 346 348 353 355 349 347 349 349 348 349 349 347 346 346 344 343 342 339 338 344 349 343 323 320 318 268 254 250 241 242 252 260 279 307 313 310 321 336 346 351 348 343 344 350 1 16 32 40 42 47 58 61 58 60 63 58 54 62 70 73 82 104 134 147 147 147 152 158 162 164 168 176 185 193 203 210 212 212 215 217 217 216 212 205
342 342 345 347 352 356 354 350 351 353 351 350 353 355 354 354 353 351 349 348 349 355 1 1 346 296 304 333 298 263 254 245 239 243 260 285 315 337 336 325 322 326 338 343 339 340 347 357 12 27 35 39 47 56 58 56 56 59 60 61 66 71 74 74 74 84 108 126 137 147 156 164 170 176 183 189 193 199 206 208 210 212 210 202 191 184 180
349 348 349 350 353 356 356 352 352 354 354 353 354 357 359 360 360 359 359 357 359 10 20 22 21 140 149 76 22 260 256 260 252 245 249 255 260 284 12 357 337 318 320 329 331 332 341 353 6 19 31 40 48 54 57 57 53 50 52 57 61 64 68 68 62 60 71 91 108 118 128 141 152 159 166 171 172 173 176 177 176 177 178 176 175 175 173
357 353 354 355 355 358 0 356 352 355 359 359 358 360 2 3 5 7 7 5 7 18 30 38 46 67 100 105 99 108 116 113 177 181 184 197 203 174 48 32 21 356 326 326 326 326 334 348 357 5 23 45 54 55 59 59 53 44 41 45 52 58 62 64 62 57 58 66 78 92 107 122 135 143 149 154 157 159 161 160 158 160 163 165 168 171 171
3 356 355 358 359 1 3 1 358 0 3 2 2 6 8 7 9 14 15 12 13 22 34 43 51 60 71 82 87 91 93 92 96 103 110 116 109 71 47 37 31 24 9 352 335 325 328 341 349 351 9 40 58 59 61 62 59 54 47 41 44 52 58 63 66 64 60 62 70 81 95 109 119 128 134 139 144 151 156 156 155 156 158 159 161 164 166
6 0 356 358 2 4 4 5 6 6 4 2 4 8 11 12 15 21 23 20 18 24 32 41 50 58 63 65 66 65 67 74 82 85 84 81 74 59 43 35 32 26 17 9 350 327 327 343 357 349 360 28 53 60 58 59 63 66 64 57 50 51 53 59 66 70 70 70 75 82 93 103 111 119 126 133 139 146 153 157 158 157 155 154 154 154 153
3 2 358 359 3 6 5 7 9 9 7 6 6 8 11 15 19 25 27 25 24 28 34 38 42 49 55 59 60 57 54 56 62 71 75 71 61 49 37 27 25 25 20 16 11 343 334 352 25 351 351 14 41 55 54 53 60 71 72 68 63 59 54 52 59 67 75 81 83 86 94 103 109 116 124 131 137 141 146 150 152 151 149 148 146 143 141
5 5 2 1 4 7 7 9 11 12 13 14 11 8 11 17 23 26 27 26 26 32 38 41 41 44 50 58 63 63 58 52 48 52 62 61 50 40 32 22 17 18 17 15 23 20 357 5 37 325 326 1 26 46 64 75 84 88 83 72 62 60 58 52 53 60 73 85 91 92 97 104 113 120 127 132 136 140 142 142 141 139 137 136 133 129 129
10 8 4 2 6 10 11 12 13 14 17 19 15 10 11 17 24 28 28 28 29 34 38 42 46 49 50 54 61 66 64 58 49 46 50 54 50 41 33 24 19 16 15 18 40 59 52 43 50 79 221 303 359 14 41 91 113 114 106 92 74 64 63 60 57 58 65 76 87 95 102 111 120 127 132 137 140 142 143 142 139 136 134 132 129 127 128
14 10 6 5 9 16 18 17 16 17 19 21 19 13 11 15 23 29 31 32 33 36 38 41 46 52 53 51 54 58 59 58 56 52 51 53 53 49 42 35 27 23 24 36 53 60 62 62 59 59 87 179 226 285 321 23 119 129 128 126 126 126 111 88 78 76 78 86 95 105 114 122 128 132 137 142 146 147 147 144 141 138 134 130 129 131 134
18 16 12 11 13 18 20 20 20 20 21 23 24 20 15 16 21 28 33 35 35 37 39 40 43 49 53 52 50 51 52 53 56 57 54 52 50 46 41 39 37 33 37 48 55 55 53 52 50 50 58 91 189 230 245 244 177 136 133 133 131 131 129 120 110 106 108 112 117 121 126 132 136 140 143 147 150 150 149 146 144 142 140 139 141 144 145
23 23 24 22 20 21 24 27 27 24 23 25 28 27 23 20 19 23 30 35 36 37 39 40 39 43 48 50 52 57 61 61 59 56 55 54 52 46 42 43 46 46 47 52 54 52 46 37 32 35 44 53 88 164 172 166 146 131 127 124 117 114 117 118 116 114 115 118 122 126 130 132 135 138 143 148 152 153 152 150 149 150 150 150 152 154 154
23 26 30 30 26 25 28 31 30 28 27 28 28 26 26 26 24 21 25 31 35 36 38 40 40 40 43 48 55 61 66 68 66 62 58 58 57 52 48 49 50 49 49 52 53 53 49 40 30 33 48 68 96 112 114 112 110 109 110 110 108 105 104 104 106 109 113 114 116 118 122 124 126 128 134 141 146 148 150 151 153 154 154 153 154 156 157
23 26 33 36 35 33 33 32 32 31 29 28 27 25 23 26 29 26 24 28 34 38 40 42 42 42 42 46 52 56 59 63 66 65 62 60 60 58 55 55 55 55 55 56 56 58 59 59 59 66 78 88 94 98 100 102 101 100 99 99 100 100 99 98 100 103 106 108 111 114 116 118 120 122 126 132 136 139 143 147 149 151 151 151 150 151 152
26 25 30 35 37 36 34 33 34 33 27 24 23 23 21 24 31 34 29 27 32 39 43 45 45 44 44 48 53 56 58 61 64 63 62 61 61 60 59 59 60 62 64 64 64 66 70 75 79 84 88 88 85 84 86 90 93 94 94 95 97 99 101 102 102 102 103 106 110 113 114 115 116 118 121 124 127 130 136 140 142 143 146 147 146 145 145
36 30 32 35 33 29 28 29 30 28 25 21 20 19 19 22 29 35 36 34 35 40 47 49 48 45 46 50 55 58 62 65 68 68 67 66 65 66 67 70 71 72 73 73 72 73 76 80 83 86 89 90 87 85 84 84 85 85 87 90 93 95 97 99 100 102 104 105 107 108 109 110 113 115 117 118 121 124 129 132 134 136 139 141 139 137 136
43 41 43 42 36 30 28 28 27 25 22 20 18 17 19 24 30 35 41 44 43 43 47 51 51 47 45 49 55 61 65 68 71 71 70 70 72 75 77 79 81 82 81 80 80 79 78 78 78 79 80 83 85 86 86 86 85 85 86 88 89 90 91 91 93 94 96 99 102 104 105 108 111 114 115 116 117 120 122 123 124 127 129 130 131 131 131
58 56 50 43 40 39 37 34 33 30 25 21 20 19 21 28 35 38 41 46 48 46 46 50 53 51 47 47 53 61 66 69 73 77 78 80 84 86 86 84 84 84 82 81 81 80 79 79 79 80 81 81 82 83 86 88 90 92 92 93 93 92 91 90 89 90 91 93 95 98 101 103 106 107 108 109 110 112 114 115 116 117 117 118 119 120 120
69 62 52 48 50 50 44 38 36 35 31 27 24 23 26 33 41 42 41 44 49 51 50 50 54 57 55 52 54 60 66 71 77 83 86 87 87 87 86 84 82 81 79 78 77 76 76 76 76 77 79 81 82 83 85 88 91 94 96 97 98 99 99 99 98 98 97 98 98 98 99 100 100 99 99 100 101 102 103 103 102 101 101 102 103 104 104